Location: Houston
(29.7630°N, 95.3630°W)
Time: 23:40:54
(UTC-06:00)

Saudisat 1A - Visible Passes

Search period start: 11 February 2016 00:00
Search period end: 21 February 2016 00:00
Orbit: 565 x 630 km, 64.6° (Epoch: 11 February)

Date Brightness Start Highest point End Pass type
(mag) Time Alt. Az. Time Alt. Az. Time Alt. Az.
11 Feb 8.6 06:29:56 10° NNW 06:34:25 61° ENE 06:38:51 10° SE visible
12 Feb 11.0 05:03:41 10° NNE 05:04:58 11° NE 05:06:13 10° ENE visible
12 Feb 10.9 20:39:44 10° SW 20:39:55 11° SW 20:39:55 11° SW visible
13 Feb 10.5 05:12:18 10° N 05:15:40 20° NE 05:18:59 10° ESE visible
13 Feb 9.5 19:12:18 10° SSE 19:14:46 18° ESE 19:14:46 18° ESE visible
13 Feb 10.8 20:50:40 10° WSW 20:51:33 15° WSW 20:51:33 15° WSW visible
14 Feb 9.5 05:22:16 11° N 05:26:15 37° ENE 05:30:24 10° SE visible
14 Feb 8.5 19:21:34 10° S 19:25:37 38° ESE 19:26:26 34° E visible
14 Feb 11.0 21:02:19 10° W 21:03:13 13° W 21:03:13 13° W visible
15 Feb 8.2 05:33:24 18° NNW 05:36:43 74° ENE 05:41:10 10° SSE visible
15 Feb 7.9 19:31:33 10° SSW 19:35:55 80° ESE 19:38:03 30° NNE visible
16 Feb 11.0 04:07:57 13° ENE 04:07:57 13° ENE 04:09:26 10° E visible
16 Feb 8.1 05:44:44 25° NW 05:47:05 54° WSW 05:51:25 10° S visible
16 Feb 8.8 19:42:05 10° SW 19:46:20 49° WNW 19:49:35 17° N visible
17 Feb 10.5 04:19:25 20° E 04:19:25 20° E 04:21:36 10° ESE visible
17 Feb 9.0 05:56:11 23° W 05:57:21 26° WSW 06:01:04 10° SSW visible
17 Feb 10.1 19:53:10 10° WSW 19:56:51 26° NW 20:00:37 10° N visible
18 Feb 10.2 04:31:00 22° ESE 04:31:00 22° ESE 04:32:48 10° SE visible
18 Feb 9.9 06:07:46 13° WSW 06:07:46 13° WSW 06:09:37 10° SW visible
18 Feb 10.9 20:05:06 10° W 20:07:30 14° NW 20:09:55 10° NNW visible
19 Feb 10.4 04:42:39 15° SSE 04:42:39 15° SSE 04:43:25 10° SSE visible
19 Feb 8.1 18:33:46 10° SSW 18:38:09 84° WNW 18:42:39 10° NNE visible
20 Feb 9.4 18:44:26 10° SW 18:48:35 41° WNW 18:52:50 10° NNE visible
